Wind_Speed
27 26 26 26 29 30 30 30 29 29 29 29 27 27 29 32 30 27 28 29 27 27
30 30 32 32 31 32 31 31 31 32 33 33 31 30 29 31 32 31 30 30 30 30
32 34 36 36 36 36 36 35 34 34 34 33 33 32 32 32 31 32 33 31 30 31
34 36 37 38 39 39 39 39 38 37 36 36 35 34 34 34 33 33 33 34 34 33
35 36 38 39 41 41 42 42 40 40 39 38 37 36 36 37 35 34 33 33 33 34
37 38 39 39 40 41 41 43 42 41 41 41 39 38 38 38 38 37 36 36 35 36
38 39 40 41 41 41 41 43 42 42 43 43 42 41 40 39 39 39 38 37 37 37
40 40 41 41 41 42 42 42 43 44 43 44 43 43 41 40 41 40 40 39 38 38
41 42 42 42 41 42 43 43 43 43 43 44 44 46 46 46 41 38 38 39 38 38
42 43 43 43 43 44 44 44 44 44 44 46 47 47 48 48 45 41 39 40 39 37
43 44 45 45 45 46 45 44 44 44 45 46 47 47 47 47 46 42 42 42 40 39
44 47 47 46 48 47 44 43 44 44 45 45 48 48 47 45 41 39 41 40 40 40
47 48 48 46 46 46 44 45 44 45 45 47 49 48 47 44 38 35 34 36 37 42
48 46 46 46 44 42 39 40 42 42 44 44 43 45 44 43 41 34 30 32 32 35
Wind_Direction
316 311 307 304 302 299 296 295 295 293 290 288 287 285 286 287 285 282 278 275 272 271
313 311 307 304 301 297 294 293 292 289 287 285 284 281 279 277 278 280 277 273 271 268
305 304 302 300 297 294 293 291 290 288 286 283 280 278 276 272 271 271 274 273 269 266
301 299 297 294 293 293 293 292 289 287 284 281 279 276 273 269 267 265 266 268 268 267
300 297 294 292 291 291 290 289 286 285 282 278 274 272 268 268 265 263 262 262 264 265
299 297 295 293 292 290 288 286 285 283 280 278 275 272 268 266 265 261 260 258 258 260
301 299 297 295 292 290 288 285 282 279 277 275 274 272 268 265 264 262 259 257 255 256
302 300 299 297 294 291 287 283 281 278 275 273 270 266 265 262 260 259 259 257 254 254
305 304 301 299 297 293 289 285 282 278 274 271 267 265 266 264 259 255 252 252 252 252
307 305 302 300 298 294 290 288 283 278 274 270 267 266 265 262 260 256 251 250 251 250
307 305 303 302 298 294 292 288 284 279 274 270 267 266 264 261 257 253 249 247 248 248
309 305 303 300 297 294 291 289 284 280 276 269 266 264 262 258 254 249 245 244 244 245
308 305 301 299 298 296 293 289 287 283 277 271 267 262 259 253 248 245 241 241 243 245
310 307 306 303 302 300 302 299 294 289 285 277 268 259 256 250 242 237 237 237 239 241
Height
863 859 854 850 846 841 837 832 829 826 823 820 817 814 812 808 807 804 801 799 798 795
858 853 848 845 841 835 831 826 822 819 815 812 809 807 805 801 798 797 794 792 789 787
854 849 843 838 833 828 823 819 814 810 807 803 800 798 796 793 790 788 785 783 781 779
848 843 837 831 825 820 814 810 805 801 797 794 791 789 786 783 782 779 777 775 773 770
841 836 830 824 817 812 805 800 796 792 787 784 781 779 776 773 771 769 767 765 764 761
833 828 821 815 809 803 797 789 785 781 776 771 769 767 764 762 759 758 756 755 754 751
825 819 812 805 799 793 787 780 775 770 764 759 755 752 750 748 746 744 742 742 742 740
817 810 803 795 788 781 775 768 762 756 751 746 743 738 736 734 732 731 729 728 728 728
808 800 793 785 777 769 761 755 749 742 737 730 726 722 722 720 717 716 714 712 713 714
800 791 783 774 765 757 748 741 734 726 721 713 708 706 704 703 702 700 699 698 699 701
792 782 772 763 754 743 735 726 717 709 703 696 689 688 686 685 685 683 682 683 685 687
784 772 762 751 740 730 720 710 701 693 685 678 670 668 667 668 667 665 664 668 671 673
775 764 751 739 728 718 708 695 685 675 667 658 650 647 647 649 650 649 650 654 656 659
766 754 742 728 717 706 695 685 673 661 649 639 631 625 627 629 632 633 638 640 642 644